This is the latest recevied weather packets stored in our database for station/object N4HAC. If no packets are shown the sender has not sent any weather packets the latest 10 day(s).
| Time | Temp. | Humidity | Pressure | Rain* | Wind** | Luminosity | Snow |
|---|---|---|---|---|---|---|---|
| 1777904042 | 17.22° C | 48% | 1008.5 hPa | 0 mm | - | 657 W/m² | - |
| 1777903738 | 17.78° C | 46% | 1008.4 hPa | 0 mm | - | 646 W/m² | - |
| 1777903434 | 17.22° C | 46% | 1008.6 hPa | 0 mm | - | 630 W/m² | - |
| 1777903131 | 17.78° C | 44% | 1008.6 hPa | 0 mm | - | 617 W/m² | - |
| 1777902827 | 17.22° C | 49% | 1008.7 hPa | 0 mm | - | 604 W/m² | - |
| 1777902525 | 16.67° C | 47% | 1008.8 hPa | 0 mm | - | 593 W/m² | - |
| 1777902222 | 16.11° C | 46% | 1009 hPa | 0 mm | - | 579 W/m² | - |
| 1777901920 | 16.11° C | 45% | 1008.8 hPa | 0 mm | - | 564 W/m² | - |
| 1777901618 | 15.56° C | 45% | 1008.7 hPa | 0 mm | - | 543 W/m² | - |
| 1777901314 | 15.56° C | 46% | 1008.7 hPa | 0 mm | - | 527 W/m² | - |
| 1777901012 | 15.56° C | 54% | 1008.9 hPa | 0 mm | - | 501 W/m² | - |
| 1777900709 | 14.44° C | 59% | 1008.8 hPa | 0 mm | - | 490 W/m² | - |
| 1777900406 | 13.89° C | 59% | 1008.9 hPa | 0 mm | - | 476 W/m² | - |
| 1777900103 | 14.44° C | 59% | 1008.9 hPa | 0 mm | - | 452 W/m² | - |
| 1777899800 | 13.89° C | 66% | 1008.7 hPa | 0 mm | - | 425 W/m² | - |
| 1777899497 | 13.33° C | 66% | 1008.9 hPa | 0 mm | - | 384 W/m² | - |
| 1777899194 | 12.78° C | 67% | 1009.4 hPa | 0 mm | - | 350 W/m² | - |
| 1777898892 | 12.22° C | 68% | 1009 hPa | 0 mm | - | 318 W/m² | - |
| 1777898589 | 11.11° C | 69% | 1009.1 hPa | 0 mm | - | 299 W/m² | - |
| 1777898286 | 11.11° C | 67% | 1009.6 hPa | 0 mm | - | 283 W/m² | - |
| 1777897983 | 11.11° C | 67% | 1009.2 hPa | 0 mm | - | 282 W/m² | - |
| 1777897679 | 11.11° C | 63% | 1009.5 hPa | 0 mm | - | 135 W/m² | - |
| 1777897375 | 12.22° C | 66% | 1009.4 hPa | 0 mm | - | 217 W/m² | - |
| 1777897071 | 11.67° C | 65% | 1009.6 hPa | 0 mm | - | 288 W/m² | - |
| 1777896768 | 11.11° C | 70% | 1009.4 hPa | 0 mm | - | 254 W/m² | - |
* Rain latest hour (hover to see other rain measurements)
** Current wind speed in m/s (hover to see current wind gust speed)